YAOGAN-35 05A (53760 NORAD) Tracking and Keplerian Element Data

This shows tracking and keplerian element data for the satellite.

Feedback or suggestion? Click here.




ElementValue
Catalog53760
NameYAOGAN-35 05A
Epoch Orbit1160
Epoch Day325.22298957
Epoch Year2022
RAAN267.2352
Inclination34.9982
Eccentricity0.0008951
Argument of Perigee238.1566
Mean Anonmoly261.4993
Mean Motion15.2301557
Decay Rate0.0001136
L11 53760U 22109A 22325.22298957 .00011360 00000+0 47166-3 0 9990
L22 53760 34.9982 267.2352 0008951 238.1566 261.4993 15.23015570 11600



Live tracking and technical data element details for YAOGAN-35 05A (NORAD 53760). YAOGAN-35 05A can be tracked NOW for your location showing map with azimuth and elevation plus other details from your city location.







IsCatalogInMostPopularTable: catalog: 53760, numindb: -1

Insert: records affected: 1


GetName: 53760 YAOGAN-35 05A

Hit Count: inserted at: Thu, 08 Dec 2022 08:41:43 GMT